Regional Weather Roundup
Issued by NWS Raleigh/Durham, NC

Home | Current Version | Previous Version | Text Only | Print | Product List | Glossary On
Versions: 1 2 3 4 5 6 7 8 9 10 11 12 13 14 15 16 17 18 19 20 21 22 23 24 25 26 27
000
ASUS42 KRAH 201510
RWRRAH
NORTH CAROLINA WEATHER ROUNDUP
NATIONAL WEATHER SERVICE RALEIGH NC
1100 AM EDT FRI OCT 20 2017

NOTE: "FAIR" INDICATES FEW OR NO CLOUDS BELOW 12,000 FEET WITH NO
SIGNIFICANT WEATHER AND/OR OBSTRUCTIONS TO VISIBILITY.

NCZ001-053-055-056-065-067-201600-
WESTERN NORTH CAROLINA

CITY           SKY/WX    TMP DP  RH WIND       PRES   REMARKS
ASHEVILLE      SUNNY     61  41  47 N7        30.36S
JEFFERSON      SUNNY     59  43  55 CALM      30.37S
HICKORY        SUNNY     64  47  53 CALM      30.32S
RUTHERFORDTON  SUNNY     67  42  39 CALM      30.32S
MOUNT AIRY     SUNNY     68  47  45 N5        30.35R
BOONE          SUNNY     61  32  33 NW7       30.38S
$$

NCZ021-022-025-041-071-084-088-201600-
CENTRAL NORTH CAROLINA

CITY           SKY/WX    TMP DP  RH WIND       PRES   REMARKS
CHARLOTTE      MOSUNNY   70  47  43 E5        30.32S
GREENSBORO     MOSUNNY   70  48  45 N8        30.30S
WINSTON-SALEM  SUNNY     71  46  40 N3        30.32S
RALEIGH-DURHAM MOSUNNY   67  49  52 NE7       30.29S
FORT BRAGG     SUNNY     71  48  43 N6        30.26F
FAYETTEVILLE   SUNNY     72  49  44 N7        30.26F
BURLINGTON     SUNNY     71  50  47 N6        30.30R
LAURINBURG     SUNNY     71  51  49 VRB5      30.29S
$$

NCZ011-015-027-028-043-044-047-080-103-201600-
NORTHEASTERN NORTH CAROLINA

CITY           SKY/WX    TMP DP  RH WIND       PRES   REMARKS
ROCKY MT-WILSO SUNNY     67  53  61 N5        30.27S
GREENVILLE     SUNNY     64  50  59 CALM      30.26S
WASHINGTON     SUNNY     67  51  57 CALM      30.26F
ELIZABETH CITY SUNNY     69  56  62 N7        30.25S
MANTEO         SUNNY    N/A N/A N/A N6        30.24F
CAPE HATTERAS  SUNNY     73  61  65 NW5       30.24F
$$

NCZ078-087-090-091-093-098-101-201600-
SOUTHEASTERN NORTH CAROLINA

CITY           SKY/WX    TMP DP  RH WIND       PRES   REMARKS
LUMBERTON      SUNNY     71  51  49 MISG      30.27F
GOLDSBORO      SUNNY     68  51  52 N5        30.25S
KINSTON        SUNNY     68  52  56 NW3       30.26F
KENANSVILLE    SUNNY     70  50  49 NW5       30.27S
NEW BERN       SUNNY     71  53  52 SW5       30.27S
CHERRY POINT   SUNNY     72  54  53 W5        30.27S
BEAUFORT       SUNNY     71  57  61 NW6       30.25F
JACKSONVILLE   SUNNY     71  58  63 W5        30.26S
WILMINGTON     SUNNY     73  56  54 CALM      30.27S
$$





USA.gov is the U.S. government's official web portal to all federal, state and local government web resources and services.